カタログに戻る

THORAD AGENA D DEB

運用中LEO
NORAD 22532·DEBRIS·🇺🇸 United States

打ち上げ Apr 8, 1970 から Vandenberg Space Force Base

Loading…

次のパス (今後24時間)

TLE

最新Source: Space-Track

元期: Sep 14, 2026, 00:43 UTC

1 22532U 70025QN  26257.03047189  .00000817  00000-0  97570-3 0  9999
2 22532 100.0920  90.3010 0005323  12.7161 138.9774 13.70619742664827

AllMySatでTHORAD AGENA D DEBをリアルタイム追跡

Download on the App Store